Fort Worth Meacham International Airport Fort Worth US
ICAO: KFTW
IATA: FTW
Category: Large
Scheduled Services: No

Elevation: 710 ft
TransAlt. 18000 ft.

Airport Communications:
RGNL APP DEP:118.1
ATIS:120.7
CLNC DEL:124.65
GND:121.9
FORT WORTH RDO:122.6
TWR:118.3
UNICOM:122.95

KFTW Zoom In..

If you have problems with the map follow the link
https://www.worldairports.se/pages/airport.php?
ICAO=KFTW

Runways:

(A) RW 09 length 3677 ft width 100 ft
---- / hdg 92

(B) RW 16 length 7502 ft width 150 ft
ILS 109.90 / hdg 164

(C) RW 17 length 4005 ft width 75 ft
---- / hdg 164

(D) RW 27 length 3677 ft width 100 ft
---- / hdg 272

(E) RW 34 length 7502 ft width 150 ft
ILS 109.90 / hdg 344

(F) RW 35 length 4005 ft width 75 ft
---- / hdg 344

Location; KFTW
Day. 17 / Time. 01.53 Zulu
* Altimeter: 30.06
* Temperature: 14° c. 57.2°f.
* Wind from: 170° Speed 08 kn.
Dewpoint: 03° c.
Visibility: 10 Statute Miles.
Clouds: Clear (automated report).

KFTW 170153Z 17008KT 10SM CLR 14/03 A3006 RMK AO2 SLP179 T01390028


Wind From 170°
Speed 08 kn.

 
 
jpsmedia.com for Web Design worldairports.se 2018   terms of use